Theta_e
319 317 317 317 316 317 318 320 321 320 321 322 322 322 323 323 321 323 322 321 319 319 319 319 327 330 332 332 328 346 346 352 351 346 343 343 341 349 347 345 330 337 341 344
318 317 316 317 317 317 318 320 321 322 322 322 323 323 324 324 324 324 323 322 321 319 319 319 326 332 335 332 335 329 326 339 340 346 344 346 345 346 345 349 352 347 343 333
317 317 316 316 316 318 318 319 321 323 322 322 323 323 325 324 324 323 322 321 321 321 320 320 328 331 331 335 338 331 328 327 327 327 325 326 338 341 343 345 345 342 344 344
318 318 317 316 317 318 319 320 321 322 322 323 323 324 328 326 325 324 322 322 321 321 320 320 328 331 331 333 333 330 326 325 323 323 324 323 322 330 332 334 335 333 331 332
319 317 317 317 316 318 319 321 321 321 322 322 323 323 325 326 325 324 325 323 323 324 320 322 323 332 330 333 333 328 326 326 325 323 337 322 336 342 335 329 329 326 324 316
320 318 318 318 318 319 321 321 321 321 321 322 322 323 324 326 326 325 325 323 323 324 324 324 328 331 332 332 332 334 333 332 325 322 325 335 334 334 329 330 328 325 328 329
319 318 318 319 320 320 320 322 322 322 322 322 322 323 325 327 326 325 325 323 323 325 328 327 331 331 332 335 341 342 335 334 328 322 336 332 329 330 329 328 327 327 327 326
322 320 319 320 321 320 321 323 322 323 322 321 322 323 324 327 326 325 324 324 323 326 328 330 330 331 337 339 339 337 337 335 334 333 333 332 329 325 323 324 322 319 319 318
322 322 319 321 320 321 321 322 321 323 324 324 323 323 326 326 325 325 325 325 326 327 329 331 333 333 337 335 332 331 329 328 326 322 321 322 318 318 318 317 317 316 316 316
321 322 320 320 320 320 322 322 323 323 326 325 325 325 327 327 327 325 327 327 327 329 331 331 331 332 331 330 329 328 326 325 324 320 318 319 317 316 316 316 315 315 315 314
321 323 323 322 321 320 319 321 322 325 326 330 331 331 327 328 328 327 327 328 329 330 330 330 330 329 328 326 326 325 323 322 321 320 319 318 317 316 315 315 314 313 313 312
321 321 325 324 322 321 322 322 324 326 327 324 327 329 327 328 328 326 327 328 329 329 329 329 328 326 325 324 323 322 321 320 319 318 318 318 317 315 314 314 313 311 312 312
322 323 326 327 324 324 321 321 325 329 328 327 331 331 326 326 326 324 326 326 327 327 327 326 325 323 322 321 320 319 318 317 317 316 316 316 316 316 315 314 313 313 312 313
322 324 325 328 325 324 323 321 322 326 332 327 328 327 326 325 325 326 327 326 326 326 324 323 322 321 320 319 318 316 316 315 315 315 315 314 313 312 311 313 314 314 314 315
325 324 324 323 326 326 325 321 325 326 326 327 325 324 325 325 326 326 326 325 324 323 323 322 321 320 318 317 316 315 314 314 314 314 313 313 313 313 313 314 314 314 314 312
326 326 326 329 326 326 327 324 326 325 324 326 326 324 322 324 322 323 325 325 324 322 321 320 319 318 317 316 315 314 314 314 313 312 312 312 312 313 313 313 313 313 312 311
329 328 329 329 326 327 327 326 326 327 327 327 326 327 325 324 323 324 323 323 322 320 319 318 317 316 316 314 313 313 312 312 312 312 311 311 311 311 311 310 310 310 309 310
328 329 327 327 324 329 324 324 324 323 325 324 322 324 324 324 323 323 322 321 320 319 318 316 315 314 314 313 312 311 310 311 311 310 310 309 308 308 307 307 307 306 307 309
326 328 329 327 326 324 322 321 322 323 322 320 321 321 322 322 320 319 319 319 318 316 314 314 313 312 312 311 309 308 308 308 308 307 306 305 304 304 304 303 303 305 306 306
323 324 327 326 326 322 321 320 318 317 324 321 321 320 323 322 323 319 317 316 315 314 312 312 311 310 308 306 304 304 304 304 304 303 302 303 302 301 302 302 303 305 304 305
324 322 325 323 326 325 321 320 320 322 326 322 322 322 322 323 320 316 314 313 312 311 310 309 308 307 304 302 302 301 301 301 300 300 303 303 303 301 301 301 303 304 303 304
321 323 325 323 326 327 319 320 323 325 322 321 320 320 318 317 316 314 313 311 310 309 308 308 307 305 303 300 301 300 299 299 300 301 302 302 301 301 302 300 302 303 303 304
323 321 327 324 326 325 322 324 321 320 319 319 318 317 316 315 314 313 311 309 307 306 306 307 306 305 303 301 302 301 300 300 300 301 301 301 301 302 301 301 303 303 304 305
321 321 324 323 322 322 321 319 318 318 317 317 316 315 314 313 311 309 307 306 305 305 305 304 304 304 303 300 299 301 299 300 300 300 300 300 300 301 301 302 303 303 304 305
319 319 321 322 320 319 318 318 317 317 316 315 314 313 311 309 307 306 305 304 304 304 303 303 302 301 300 299 298 299 299 299 298 299 299 299 299 298 300 302 303 305 305 303
319 320 323 323 319 319 318 318 317 315 314 312 310 307 306 305 304 304 303 303 303 302 301 301 300 299 298 297 296 295 298 298 297 296 298 297 298 299 301 303 306 306 304 306
Wind_Speed
27 18 20 25 25 21 22 22 22 18 21 20 17 14 17 20 21 22 19 18 20 25 26 33 28 21 18 17 20 23 20 18 15 11 12 12 13 13 10 7 2 15 18 2
21 24 24 25 25 26 24 25 23 18 22 11 13 14 16 17 17 19 14 16 18 23 26 31 29 24 24 18 16 15 13 20 19 12 12 5 11 9 7 10 12 13 14 10
25 19 26 26 25 25 23 24 19 14 8 9 9 13 17 17 18 14 11 10 14 19 25 29 32 31 27 18 16 13 11 7 7 5 3 4 5 9 8 8 6 5 3 6
25 26 24 26 26 25 23 22 19 12 12 13 18 14 20 21 18 13 14 11 16 22 26 29 29 34 28 23 21 15 13 10 6 10 8 6 12 8 12 12 5 5 11 11
26 26 25 23 27 26 20 19 18 16 13 12 16 10 15 10 14 15 12 16 15 21 27 30 33 31 25 26 25 17 17 13 11 5 9 15 12 9 10 7 9 8 6 5
27 31 25 25 22 23 16 17 19 16 14 14 18 16 15 4 16 16 17 20 18 14 19 19 20 28 23 18 14 17 18 19 17 15 16 18 14 16 14 10 6 5 3 1
24 28 26 24 19 20 19 17 9 12 12 13 16 17 13 12 5 7 16 21 20 16 11 11 33 23 18 14 13 13 21 19 21 21 20 18 17 18 17 15 10 9 9 6
18 22 28 22 20 21 23 17 12 17 14 14 20 19 12 14 13 6 5 18 21 18 19 14 17 23 19 16 11 8 11 15 18 20 19 15 15 14 9 12 11 9 10 12
20 24 22 24 19 22 20 20 21 17 9 5 7 6 6 2 12 8 12 11 18 15 20 20 16 19 21 16 15 12 10 10 9 12 12 13 13 11 10 11 12 15 18 21
18 13 17 22 18 22 23 20 18 14 16 11 12 14 7 8 14 13 14 14 18 23 27 24 19 21 20 17 15 14 11 10 9 7 6 5 6 9 12 13 16 19 21 23
21 4 9 16 21 21 16 16 13 9 12 6 6 5 5 3 10 15 17 20 20 25 28 27 24 21 18 15 13 12 8 6 5 3 2 5 7 10 13 16 18 20 24 26
21 5 6 14 22 24 22 20 18 7 13 12 6 3 9 12 4 12 19 23 23 27 24 22 20 18 16 14 13 10 8 5 3 2 1 5 9 12 14 18 20 23 25 26
5 7 10 9 8 16 24 22 20 18 5 8 5 5 14 4 10 14 20 17 17 24 25 21 18 18 16 13 10 8 5 3 1 2 4 6 10 14 17 20 22 24 26 26
9 8 9 6 12 16 21 22 15 16 7 9 6 9 8 5 1 10 22 20 18 17 26 19 16 15 13 8 6 4 3 3 4 6 9 13 16 18 21 23 24 24 24 24
5 14 11 12 11 8 17 24 13 8 6 5 7 8 7 1 7 9 14 21 23 18 6 14 15 13 9 5 3 3 4 5 7 10 12 14 17 18 20 20 22 23 25 29
15 12 21 20 17 16 26 13 14 5 11 7 10 12 18 9 8 12 12 26 26 21 17 13 10 8 6 4 4 5 5 6 9 11 12 14 16 18 19 20 20 22 25 23
16 13 16 4 3 10 5 13 17 21 25 21 10 17 17 13 9 16 12 18 21 21 18 14 10 8 6 7 7 7 9 10 12 13 14 15 17 18 18 20 22 24 25 23
6 10 4 7 11 2 1 8 10 9 6 7 3 18 16 19 15 15 15 25 24 16 13 12 9 7 6 7 9 11 12 13 13 14 15 16 17 19 21 25 27 27 24 20
3 8 5 3 3 11 11 8 8 11 8 2 5 8 21 31 34 24 24 23 20 16 13 11 9 7 6 9 12 13 13 13 14 15 16 18 20 23 25 25 25 23 22 19
8 9 6 2 7 6 12 10 7 7 8 8 5 4 18 21 12 11 17 16 15 14 12 11 10 7 8 11 14 14 14 14 14 16 19 22 21 24 25 25 24 23 20 19
6 4 6 5 3 6 11 7 3 7 5 19 20 17 22 16 18 19 17 15 14 12 12 11 10 9 11 15 18 16 15 15 20 20 22 23 22 23 24 23 22 19 21 23
5 7 7 4 6 4 5 7 2 14 18 22 24 24 27 25 20 17 15 14 12 10 8 8 9 10 13 19 20 19 17 19 19 21 22 21 20 22 21 20 20 16 20 21
6 5 3 4 6 11 21 22 26 24 23 22 24 22 21 20 17 15 13 11 10 8 8 8 9 11 11 19 24 26 23 20 20 19 21 20 19 19 17 18 16 16 18 21
6 9 6 8 11 16 22 29 29 27 26 24 22 20 18 16 15 14 12 10 9 8 8 8 9 12 12 17 21 25 26 21 20 21 20 20 18 18 17 17 15 17 18 17
5 6 8 16 17 21 26 26 27 23 23 22 18 17 17 16 15 13 12 10 9 8 9 9 10 11 12 15 18 22 27 27 24 23 20 19 17 15 19 15 15 15 14 14
8 5 6 6 15 20 17 24 23 23 21 19 20 19 17 16 15 14 12 10 9 9 9 10 10 11 12 13 15 20 24 26 30 32 23 19 16 17 17 19 19 13 12 12
Wind_Direction
206 217 216 216 225 226 243 230 221 239 262 189 209 249 235 227 225 244 222 216 236 225 230 232 216 177 168 157 150 141 153 151 153 148 170 187 217 232 238 243 43 249 290 360
208 223 221 220 223 228 235 251 247 218 216 218 207 231 250 241 243 236 233 212 220 220 230 231 199 189 152 153 143 135 132 147 139 153 142 222 229 258 254 192 200 196 202 204
215 209 221 227 227 222 229 240 248 258 177 245 238 254 252 253 247 225 221 231 231 214 217 228 190 183 189 157 160 160 143 156 168 205 32 304 288 270 254 244 204 213 150 152
216 226 204 222 228 226 225 226 244 230 241 234 209 242 236 221 222 200 197 208 212 214 208 215 196 187 190 196 188 183 170 175 213 214 222 267 241 247 270 273 169 180 191 194
221 218 225 209 224 224 231 213 228 243 248 253 260 267 278 163 199 183 184 191 215 200 188 196 214 193 194 198 199 198 218 230 245 241 211 244 212 195 215 182 213 228 244 251
229 216 224 232 212 219 211 237 210 218 228 231 236 252 260 268 195 192 178 191 200 199 189 193 180 177 176 187 201 219 221 230 236 212 225 214 189 171 176 180 192 212 277 296
215 233 216 236 217 199 215 216 202 215 226 235 227 236 251 136 248 320 166 172 191 153 83 142 133 140 156 160 176 192 203 209 212 206 212 203 201 184 182 185 179 201 207 200
222 211 218 214 212 194 206 204 222 204 213 224 224 229 247 182 175 123 148 166 165 131 129 122 127 141 148 157 144 161 182 183 197 200 201 197 185 193 210 215 225 252 264 276
216 225 203 221 204 218 199 212 225 259 285 302 270 219 86 221 124 152 145 142 126 141 126 123 129 138 138 144 145 142 131 126 140 166 181 194 202 221 235 257 269 283 289 292
222 221 234 213 221 220 223 201 216 233 237 222 237 222 160 214 165 177 151 155 152 138 130 128 134 128 132 136 135 142 136 145 142 149 149 217 241 262 269 281 285 291 293 291
223 156 263 276 220 208 222 233 216 241 232 182 237 269 322 184 339 330 162 155 139 138 132 131 125 124 128 132 136 135 138 117 94 96 241 260 263 276 284 287 291 288 289 291
193 200 177 254 233 215 219 217 203 222 253 230 181 182 314 291 229 2 354 150 146 135 133 137 134 140 140 138 134 135 133 127 106 84 288 290 289 287 285 286 285 289 290 292
271 179 196 254 250 256 216 214 193 209 300 240 184 123 225 161 90 69 327 288 129 138 138 134 140 143 134 120 119 114 109 98 67 343 309 289 285 290 292 292 294 294 296 298
314 230 182 241 212 213 209 212 229 211 179 202 194 154 199 210 172 156 129 87 78 50 120 127 131 114 110 107 104 85 61 12 332 300 299 293 293 295 298 299 301 301 297 287
261 218 178 224 260 291 245 198 187 177 112 211 217 251 287 108 327 326 122 111 115 123 135 110 103 100 105 92 58 38 12 353 319 309 304 303 302 303 300 295 294 293 290 297
246 216 224 158 151 225 234 181 151 149 216 280 272 241 273 111 88 18 214 157 148 148 141 127 111 93 79 38 7 358 344 322 320 310 311 308 307 301 299 298 298 291 288 293
200 213 218 179 24 3 234 191 167 188 172 200 191 169 166 166 129 182 186 124 120 103 116 98 88 67 37 0 347 347 340 335 332 322 317 318 310 306 298 291 286 283 285 285
218 170 83 148 137 137 180 221 241 211 111 317 89 148 162 145 139 178 106 105 110 106 101 89 73 46 13 351 342 340 338 337 328 321 319 313 310 306 300 292 291 292 291 279
56 104 98 102 185 130 131 145 149 170 165 53 50 106 113 108 87 65 73 85 89 90 88 77 63 41 15 354 337 334 338 329 325 320 314 312 309 305 301 302 302 300 299 278
90 90 91 171 170 127 120 95 82 160 92 58 11 66 120 133 109 101 95 91 87 81 74 69 57 34 5 341 336 342 334 331 320 311 309 310 311 309 308 305 300 303 307 302
96 71 113 223 159 79 83 87 101 180 94 80 74 75 74 73 106 109 101 92 87 79 72 61 48 29 14 354 349 344 338 325 314 317 317 318 315 311 313 311 307 308 308 299
122 183 200 131 99 95 102 132 60 107 101 94 91 95 101 108 112 108 102 93 83 77 66 53 38 18 2 357 357 352 340 326 326 328 328 325 321 321 317 310 306 310 313 314
95 63 39 51 94 78 81 91 105 107 106 101 100 103 110 109 106 101 93 91 85 76 65 47 36 19 8 1 9 6 357 345 337 335 337 335 328 328 326 320 319 316 307 306
66 65 128 95 104 99 88 99 99 103 102 100 94 100 102 104 104 100 98 93 86 74 56 43 33 24 12 352 5 9 3 356 352 347 345 342 333 335 340 330 323 316 315 316
97 93 94 109 93 102 108 106 111 108 104 103 109 107 108 109 107 107 100 91 83 69 50 43 31 20 11 3 351 5 10 9 6 357 351 344 342 346 341 348 346 334 330 319
47 120 135 133 136 113 117 123 121 112 112 114 113 107 105 108 108 105 96 88 80 65 51 42 29 21 13 1 359 358 9 13 14 11 2 357 1 3 3 358 351 353 345 330